Weather History for PHKO - August, 2013

Change the Weather History Date:

Wednesday, August 7, 2013

  Actual Average Record
Temperature  
Mean Temperature 80 °F -  
Max Temperature 86 °F 83 °F 93 °F (1986)
Min Temperature 73 °F 73 °F 70 °F (1984)
Cooling Degree Days 14    
Growing Degree Days 30 (Base 50)    
Moisture  
Dew Point 65 °F    
Average Humidity 60    
Maximum Humidity 68    
Minimum Humidity 49    
Precipitation  
Precipitation 0.00 in - - ()
Sea Level Pressure  
Sea Level Pressure 29.99 in    
Wind  
Wind Speed 7 mph (SSE)    
Max Wind Speed 16 mph    
Max Gust Speed -    
Visibility 10 miles    
Events      
Averages and records for this station are not official NWS values.
T = Trace of Precipitation, MM = Missing Value Source: NWS Daily Summary

Daily Weather History Graph

Daily Weather History Graph

Search for Another Location

Airport or City:

Trip Planner

Search our weather history database for the weather conditions in past years. The results will help you decide how hot, cold, wet, or windy it might be!

Date:

Astronomy

Aug. 07, 2013 Rise Set
Actual Time 6:02 AM HST 6:57 PM HST
Civil Twilight 5:39 AM HST 7:20 PM HST
Nautical Twilight 5:11 AM HST 7:47 PM HST
Astronomical Twilight 4:43 AM HST 8:15 PM HST
Moon 6:45 AM HST (8/7) 7:30 PM HST (8/7)
Length of Visible Light 13h 41m
Length of Day
12h 55m
New Moon, 1% of the Moon is Illuminated
Aug 7
New Moon
Aug 14
First Quarter
Aug 20
Full
Aug 27
Last Quarter
Sep 5
New

Hourly Weather History & Observations

Time (HST) Temp. Heat Index Dew Point Humidity Pressure Visibility Wind Dir Wind Speed Gust Speed Precip Events Conditions
12:53 AM 77.0 °F - 60.1 °F 56% 29.98 in 10.0 mi North 3.5 mph - N/A   Clear
1:53 AM 75.0 °F - 60.1 °F 60% 29.96 in 10.0 mi SE 5.8 mph - N/A   Clear
2:53 AM 75.0 °F - 60.1 °F 60% 29.96 in 10.0 mi Calm Calm - N/A   Clear
3:53 AM 75.0 °F - 61.0 °F 62% 29.95 in 10.0 mi ESE 6.9 mph - N/A   Clear
4:53 AM 73.0 °F - 61.0 °F 66% 29.96 in 10.0 mi NNE 6.9 mph - N/A   Clear
5:53 AM 73.0 °F - 61.0 °F 66% 29.97 in 10.0 mi NNE 3.5 mph - N/A   Clear
6:53 AM 75.0 °F - 63.0 °F 66% 29.98 in 10.0 mi ESE 8.1 mph - N/A   Clear
7:53 AM 80.1 °F 81.9 °F 64.9 °F 60% 30.00 in 10.0 mi SE 5.8 mph - N/A   Clear
8:53 AM 82.9 °F 84.4 °F 64.0 °F 53% 30.01 in 10.0 mi SE 8.1 mph - N/A   Clear
9:53 AM 82.9 °F 85.0 °F 66.0 °F 56% 30.01 in 10.0 mi SSW 10.4 mph - N/A   Clear
10:53 AM 84.9 °F 87.6 °F 66.9 °F 55% 30.00 in 10.0 mi South 11.5 mph - N/A   Clear
11:53 AM 86.0 °F 88.8 °F 66.9 °F 53% 29.99 in 10.0 mi SSW 11.5 mph - N/A   Clear
12:53 PM 86.0 °F 87.6 °F 64.9 °F 49% 29.99 in 10.0 mi SW 12.7 mph - N/A   Clear
1:53 PM 84.0 °F 87.0 °F 68.0 °F 58% 29.98 in 10.0 mi WSW 12.7 mph - N/A   Overcast
2:53 PM 84.0 °F 86.5 °F 66.9 °F 56% 29.97 in 10.0 mi WSW 13.8 mph - N/A   Mostly Cloudy
3:53 PM 84.9 °F 87.6 °F 66.9 °F 55% 29.96 in 10.0 mi WSW 16.1 mph - N/A   Overcast
4:53 PM 82.9 °F 85.8 °F 68.0 °F 60% 29.96 in 10.0 mi WSW 15.0 mph - N/A   Mostly Cloudy
5:53 PM 82.0 °F 84.9 °F 68.0 °F 62% 29.96 in 10.0 mi WSW 13.8 mph - N/A   Overcast
6:53 PM 81.0 °F 83.8 °F 68.0 °F 65% 29.97 in 10.0 mi SW 9.2 mph - N/A   Clear
7:53 PM 80.1 °F 82.3 °F 66.9 °F 64% 29.99 in 10.0 mi SSE 3.5 mph - N/A   Mostly Cloudy
8:53 PM 80.1 °F 82.1 °F 66.0 °F 62% 30.02 in 10.0 mi ENE 5.8 mph - N/A   Scattered Clouds
9:53 PM 78.1 °F - 66.9 °F 68% 30.03 in 10.0 mi ESE 8.1 mph - N/A   Clear
10:53 PM 77.0 °F - 64.9 °F 66% 30.04 in 10.0 mi East 5.8 mph - N/A   Clear
11:53 PM 77.0 °F - 63.0 °F 62% 30.03 in 10.0 mi East 4.6 mph - N/A   Clear